Regional Weather Roundup
Issued by NWS

Home | Current Version | Previous Version | Graphics & Text | Print | Product List | Glossary On
Versions: 1 2 3 4 5 6 7 8 9 10 11 12 13 14 15 16 17 18 19 20 21 22 23 24 25 26 27 28 29 30 31 32 33 34 35 36 37 38 39 40 41 42 43 44 45 46 47 48 49 50
000
ASUS43 KIND 271409
RWRIN

WEATHER ROUNDUP FOR INDIANA
NATIONAL WEATHER SERVICE INDIANAPOLIS IN
1000 AM EDT SAT AUG 27 2016

NOTE: "FAIR" INDICATES FEW OR NO CLOUDS BELOW 12,000 FEET WITH NO
SIGNIFICANT WEATHER AND/OR OBSTRUCTIONS TO VISIBILITY.

* - STATION DOES NOT REPORT WEATHER SUCH AS PRECIPITATION OR FOG.

+ - STATION NOT QUALITY CONTROLLED BY THE NATIONAL WEATHER SERVICE.
    USE DATA WITH CAUTION...ESPECIALLY DEWPOINT AND RELATIVE
    HUMIDITY OBSERVATIONS.

INZ001>003-010>013-019-020-271500-
NORTHWEST INDIANA

CITY           SKY/WX    TMP DP  RH WIND       PRES   REMARKS
GARY /AIRPORT/ PTSUNNY   73  73 100 E5        30.09S FOG
KNOX *+        CLOUDY    70  59  68 NE6       30.10F
LA PORTE +     HVY RAIN N/A N/A N/A NE3       30.11F
MICHIGAN CITY+ RAIN      68  68 100 CALM      30.11F
MONTICELLO +   LGT RAIN  71  67  87 CALM      30.11R
RENSSELAER +   CLOUDY    72  72 100 E5        30.12R
VALPARAISO     LGT RAIN  70  69  97 E6        30.10F

$$

LMZ046-743>745-271500-
SOUTHERN LAKE MICHIGAN

STATION/POSITION TIME  TEMP    WIND        PRES    WAVE
                       AIR SEA DIR/SP/G            HT
                 (UTC) (F)     (DEG/KT/KT) (MB)    (FT)
BURNS HARBOR     1307   69     100/  7/ 10 1019.6F
MICHIGAN CITY    1300   69      60/  8/  8   N/A
5NW MICH CITY    1400   71 75   90/ 12/ 14   N/A     1

$$

INZ004-005-014>016-021>024-271500-
NORTH CENTRAL INDIANA

CITY           SKY/WX    TMP DP  RH WIND       PRES   REMARKS
ELKHART        TSTM      70  68  94 W3        30.15R
GOSHEN         CLOUDY    71  67  87 CALM      30.13R THUNDER
LOGANSPORT +   HVY RAIN  70  70 100 CALM      30.16R VSB 1/2
PERU/GRISSOM   TSTM      75  73  93 SW16      30.13R
ROCHESTER +    CLOUDY    75  73  94 CALM      30.12S
SOUTH BEND     CLOUDY    69  69 100 NE3       30.12F
WARSAW +       CLOUDY    72  70  94 W3        30.12S

$$

INZ006>009-017-018-025>027-271500-
NORTHEAST INDIANA

CITY           SKY/WX    TMP DP  RH WIND       PRES   REMARKS
ANGOLA *+      SUNNY     75  70  83 SE7       30.12F
AUBURN +       MOSUNNY   77  63  61 SE3       30.12F
FORT WAYNE     PTSUNNY   77  69  76 SE9       30.11F
HUNTINGTON +   MOSUNNY   77  72  85 S8        30.11F

$$

INZ028-029-035-036-043>045-051>053-271500-
WEST CENTRAL INDIANA

CITY           SKY/WX    TMP DP  RH WIND       PRES   REMARKS
CRAWFORDSVL +  CLOUDY    72  72 100 CALM      30.12F
GREENCASTLE +  CLOUDY    72  72 100 CALM      30.13S FOG
LAFAYETTE      CLOUDY    73  72  96 SE3       30.11R
TERRE HAUTE    PTSUNNY   78  72  81 CALM      30.11F

$$

INZ030>032-037>040-046>048-054>057-064-065-271500-
CENTRAL INDIANA

CITY           SKY/WX    TMP DP  RH WIND       PRES   REMARKS
ANDERSON       SUNNY     75  75 100 CALM      30.12F
COLUMBUS       PTSUNNY   75  73  94 E6        30.12S
INDIANAPOLIS   TSTM      74  71  91 SW17G23   30.13R VSB 3/4
-EAGLE CREEK   MOSUNNY   76  71  85 NW3       30.11S
KOKOMO *+      CLOUDY    75  73  94 SW9       30.13R
MARION +       CLOUDY    77  72  85 S7        30.12F
MT COMFORT *+  CLOUDY    75  72  88 SE5       30.11F
SHELBYVILLE    PTSUNNY   80  71  74 CALM      30.11F
ZIONSVILLE +   CLOUDY    74  71  91 W6        30.14R

$$

INZ033-034-041-042-049-050-058-059-271500-
EAST CENTRAL INDIANA

CITY           SKY/WX    TMP DP  RH WIND       PRES   REMARKS
MUNCIE         MOSUNNY   78  73  84 SW6       30.13R

$$

INZ060-061-067>069-081>083-085>088-271500-
SOUTHWEST INDIANA

CITY           SKY/WX    TMP DP  RH WIND       PRES   REMARKS
EVANSVILLE     CLOUDY    76  72  87 N5        30.12R
HUNTINGBURG *+ CLOUDY    75  72  88 NW7       30.12R
WASHINGTON +   TSTM      70  70 100 MISG      30.14R

$$

INZ062-063-066-070>080-084-089>092-271500-
SOUTH CENTRAL AND SOUTHEAST INDIANA

CITY           SKY/WX    TMP DP  RH WIND       PRES   REMARKS
BLOOMINGTON    CLOUDY    76  71  85 CALM      30.11F
MADISON *+     CLOUDY    81  72  74 E3        30.13F

$$




USA.gov is the U.S. government's official web portal to all federal, state and local government web resources and services.